COSMOS 2456 (730)

Last updated on Wed Sep 09 2026 00:03:24 GMT+0000 (Coordinated Universal Time)

1 36111U 09070A 26249.73482228 .00000037 00000+0 00000+0 0 9995 2 36111 65.0634 68.1929 0001850 353.7024 183.4854 2.13103422130163
UTC large
Height (km)
Speed (km/s)
/
Latitude / Longitude
Inclination (degrees)
Orbital Period (minutes)
Azimuth
Elevation
Range (km)
Doppler Factor

Next 0 passes for location: London (51.5072 / 0.1276)

No passes found over London.
COSMOS 2456 (730)